TimeAST,TemperatureF,Dew PointF,Humidity,Sea Level PressureIn,VisibilityMPH,Wind Direction,Wind SpeedMPH,Gust SpeedMPH,PrecipitationIn,Events,Conditions,WindDirDegrees,DateUTC
12:00 AM,77.0,71.6,83,29.98,6.2,North,4.6,-,N/A,,Partly Cloudy,360,2012-11-02 04:00:00
1:00 AM,75.2,71.6,89,29.95,6.2,North,4.6,-,N/A,,Partly Cloudy,10,2012-11-02 05:00:00
2:00 AM,77,72,82,29.96,10,North,4.5,,,,Scattered Clouds,0,2012-11-02 06:00:00
2:00 AM,75.2,71.6,89,29.95,6.2,NNE,4.6,-,N/A,,Partly Cloudy,20,2012-11-02 06:00:00
3:00 AM,75.2,71.6,89,29.92,6.2,North,4.6,-,N/A,,Partly Cloudy,360,2012-11-02 07:00:00
4:00 AM,75.2,71.6,89,29.92,6.2,NNE,4.6,-,N/A,,Partly Cloudy,20,2012-11-02 08:00:00
5:00 AM,73.4,71.6,94,29.92,6.2,North,6.9,-,N/A,,Partly Cloudy,10,2012-11-02 09:00:00
6:00 AM,-9999,-9999,N/A,-9999,6.2,Calm,Calm,-,N/A,,Partly Cloudy,0,2012-11-02 10:00:00
7:00 AM,73.4,71.6,94,29.95,6.2,North,8.1,-,N/A,,Scattered Clouds,10,2012-11-02 11:00:00
8:00 AM,76,73,87,29.98,10,NNE,6.7,,,,Partly Cloudy,20,2012-11-02 12:00:00
8:00 AM,75.2,73.4,94,29.98,6.2,NNE,6.9,-,N/A,,Partly Cloudy,20,2012-11-02 12:00:00
9:00 AM,77.0,73.4,89,29.98,6.2,NNE,6.9,-,N/A,,Partly Cloudy,20,2012-11-02 13:00:00
10:00 AM,80.6,75.2,84,29.98,6.2,NNE,6.9,-,N/A,,Partly Cloudy,20,2012-11-02 14:00:00
11:00 AM,85,77,71,29.99,10,ENE,6.7,,,,Mostly Cloudy,60,2012-11-02 15:00:00
11:00 AM,84.2,77.0,79,29.98,6.2,ENE,5.8,-,N/A,,Scattered Clouds,60,2012-11-02 15:00:00
12:00 PM,86.0,77.0,74,29.98,6.2,Variable,3.5,-,N/A,,Scattered Clouds,0,2012-11-02 16:00:00
1:00 PM,86.0,73.4,66,29.95,6.2,South,8.1,-,N/A,,Scattered Clouds,180,2012-11-02 17:00:00
2:00 PM,87,72,54,29.92,10,SW,6.7,,,,Mostly Cloudy,220,2012-11-02 18:00:00
2:00 PM,87.8,73.4,62,29.92,6.2,SSW,5.8,-,N/A,,Mostly Cloudy,200,2012-11-02 18:00:00
3:00 PM,87.8,75.2,66,29.92,5.0,South,5.8,-,N/A,,Scattered Clouds,170,2012-11-02 19:00:00
4:00 PM,86.0,75.2,70,29.89,6.2,East,8.1,-,N/A,,Scattered Clouds,100,2012-11-02 20:00:00
5:00 PM,85,76,67,29.92,5,,4.5,,,,Mostly Cloudy,,2012-11-02 21:00:00
5:00 PM,84.2,75.2,74,29.92,5.0,Variable,3.5,-,N/A,,Mostly Cloudy,0,2012-11-02 21:00:00
6:00 PM,82.4,75.2,79,29.92,5.0,ENE,5.8,-,N/A,Thunderstorm,Thunderstorm,70,2012-11-02 22:00:00
7:00 PM,80.6,77.0,89,29.92,5.0,NE,4.6,-,N/A,Thunderstorm,Thunderstorm,50,2012-11-02 23:00:00
8:00 PM,78,75,87,29.96,10,East,4.5,,,Thunderstorm,Thunderstorm,80,2012-11-03 00:00:00
8:00 PM,78.8,75.2,89,29.95,6.2,East,4.6,-,N/A,Thunderstorm,Thunderstorm,80,2012-11-03 00:00:00
9:00 PM,77.0,75.2,94,29.98,6.2,NNE,5.8,-,N/A,Thunderstorm,Thunderstorm,30,2012-11-03 01:00:00
10:00 PM,77.0,73.4,89,29.98,6.2,North,4.6,-,N/A,Thunderstorm,Thunderstorm,360,2012-11-03 02:00:00
11:00 PM,76,74,91,29.99,10,North,4.5,,,,Partly Cloudy,0,2012-11-03 03:00:00
11:00 PM,77.0,73.4,89,29.98,6.2,North,4.6,-,N/A,,Scattered Clouds,360,2012-11-03 03:00:00